QTR345 EGPH-EGLL

Flight info

Callsign QTR345
Flight time N/A
Altitude 33000
Route GOSAM P600 FENIK L612 NAVSO DCT AKOMU DCT VAMEB DCT NUGRA
Aircraft A388/J-SADE2E3FGHIJ3J4J5M1RWXY/LB1D1

Departure

Time N/A
Airport Edinburgh Airport (EGPH)

Arrival

Time 2026-05-03 20:18
Airport London Heathrow Airport (EGLL)
Time Latitude Longitude Altitude Speed Heading
2026-05-03 20:15 51.47892 -0.23893 2452 ft 165 kts 266°
2026-05-03 20:15 51.47843 -0.25717 2222 ft 164 kts 269°
2026-05-03 20:15 51.47808 -0.27523 2052 ft 161 kts 268°
2026-05-03 20:15 51.47811 -0.29328 1816 ft 162 kts 269°
2026-05-03 20:16 51.47804 -0.31100 1600 ft 161 kts 268°
2026-05-03 20:16 51.47799 -0.32889 1380 ft 156 kts 269°
2026-05-03 20:16 51.47794 -0.34543 1177 ft 141 kts 268°
2026-05-03 20:16 51.47789 -0.36086 986 ft 137 kts 268°
2026-05-03 20:17 51.47778 -0.37593 835 ft 134 kts 269°
2026-05-03 20:17 51.47764 -0.39095 658 ft 134 kts 271°
2026-05-03 20:17 51.47777 -0.40615 486 ft 135 kts 271°
2026-05-03 20:17 51.47772 -0.42089 269 ft 133 kts 270°
2026-05-03 20:18 51.47764 -0.43580 106 ft 133 kts 269°
2026-05-03 20:18 51.47764 -0.44842 95 ft 91 kts 272°
2026-05-03 20:18 51.47763 -0.45555 91 ft 43 kts 269°
2026-05-03 20:18 51.47731 -0.45838 91 ft 18 kts 241°
2026-05-03 20:19 51.47674 -0.45941 94 ft 7 kts 218°
2026-05-03 20:19 51.47639 -0.45986 91 ft 8 kts 219°
2026-05-03 20:19 51.47579 -0.46059 95 ft 14 kts 212°
2026-05-03 20:19 51.47514 -0.46188 95 ft 16 kts 264°
2026-05-03 20:20 51.47516 -0.46382 91 ft 19 kts 271°
2026-05-03 20:20 51.47518 -0.46580 95 ft 15 kts 270°
2026-05-03 20:20 51.47510 -0.46761 92 ft 13 kts 258°
2026-05-03 20:20 51.47484 -0.46870 93 ft 9 kts 219°
2026-05-03 20:21 51.47418 -0.46885 91 ft 13 kts 172°
2026-05-03 20:21 51.47329 -0.46867 93 ft 13 kts 178°
2026-05-03 20:21 51.47225 -0.46864 94 ft 17 kts 180°
2026-05-03 20:21 51.47119 -0.46865 94 ft 14 kts 180°
2026-05-03 20:22 51.47029 -0.46864 94 ft 13 kts 179°
2026-05-03 20:22 51.46935 -0.46863 93 ft 14 kts 179°
2026-05-03 20:22 51.46870 -0.46862 91 ft 3 kts 179°
2026-05-03 20:22 51.46849 -0.46861 93 ft 0 kts 180°
2026-05-03 20:23 51.46844 -0.46861 95 ft 0 kts 179°
2026-05-03 20:23 51.46842 -0.46861 92 ft 0 kts 179°
2026-05-03 20:24 51.46838 -0.46861 91 ft 1 kts 179°
2026-05-03 20:24 51.46835 -0.46861 95 ft 0 kts 179°
2026-05-03 20:24 51.46826 -0.46861 91 ft 4 kts 179°
2026-05-03 20:25 51.46766 -0.46861 95 ft 11 kts 180°
2026-05-03 20:25 51.46684 -0.46850 95 ft 12 kts 147°
2026-05-03 20:25 51.46656 -0.46758 94 ft 16 kts 90°
2026-05-03 20:25 51.46658 -0.46563 96 ft 18 kts 89°
2026-05-03 20:26 51.46659 -0.46348 91 ft 20 kts 90°
2026-05-03 20:26 51.46659 -0.46120 95 ft 21 kts 90°
2026-05-03 20:26 51.46608 -0.45917 95 ft 20 kts 141°
2026-05-03 20:26 51.46493 -0.45780 94 ft 20 kts 145°
2026-05-03 20:27 51.46411 -0.45694 96 ft 13 kts 147°
2026-05-03 20:27 51.46330 -0.45609 96 ft 14 kts 145°
2026-05-03 20:27 51.46244 -0.45512 94 ft 16 kts 144°
2026-05-03 20:27 51.46152 -0.45414 95 ft 16 kts 147°
2026-05-03 20:28 51.46050 -0.45333 94 ft 16 kts 168°
2026-05-03 20:28 51.45942 -0.45323 93 ft 11 kts 169°
2026-05-03 20:28 51.45906 -0.45268 95 ft 5 kts 106°
2026-05-03 20:28 51.45901 -0.45222 95 ft 3 kts 107°
2026-05-03 20:29 51.45892 -0.45195 95 ft 2 kts 130°
2026-05-03 20:29 51.45881 -0.45174 91 ft 3 kts 130°
2026-05-03 20:29 51.45869 -0.45151 92 ft 2 kts 131°
2026-05-03 20:29 51.45859 -0.45133 91 ft 2 kts 131°
2026-05-03 20:30 51.45854 -0.45124 91 ft 0 kts 131°
2026-05-03 20:30 51.45854 -0.45123 94 ft 0 kts 131°